STPSAT-4 (45043 NORAD) Tracking and Keplerian Element Data

This shows tracking and keplerian element data for the satellite.

Feedback or suggestion? Click here.




ElementValue
Catalog45043
NameSTPSAT-4
Epoch Orbit2419
Epoch Day184.71861801
Epoch Year2020
RAAN271.1486
Inclination51.6422
Eccentricity0.000613
Argument of Perigee65.8303
Mean Anonmoly294.3326
Mean Motion15.50037601
Decay Rate1.784E-05
L11 45043U 98067QY 20184.71861801 .00001784 00000-0 39223-4 0 9996
L22 45043 51.6422 271.1486 0006130 65.8303 294.3326 15.50037601 24195

Live tracking and technical data element details for STPSAT-4 (NORAD 45043). STPSAT-4 can be tracked NOW for your location showing map with azimuth and elevation plus other details from your city location.

Track the satellite on the map from your city or location and see movement details for azimuth, elevation, latitude, longitude, range, height, and movement on the map or in text.







IsCatalogInMostPopularTable: catalog: 45043, numindb: 33
Update: records affected: 1



GetName: 45043 STPSAT-4

Hit Count: updated at: Fri, 03 Jul 2020 16:10:51 GMT